Weather History for KTTA - April, 2013

Change the Weather History Date:

Tuesday, April 9, 2013

  Actual Average (KRDU) Record (KRDU)
Temperature  
Mean Temperature 68 °F 59 °F  
Max Temperature 85 °F 71 °F 91 °F (1893)
Min Temperature 52 °F 46 °F 23 °F (1972)
Degree Days  
Heating Degree Days 0 8  
Month to date heating degree days 77  
Since 1 July heating degree days 3073  
Cooling Degree Days 4 1  
Month to date cooling degree days 9  
Year to date cooling degree days 21  
Growing Degree Days 18 (Base 50)    
Moisture  
Dew Point 55 °F    
Average Humidity 62    
Maximum Humidity 96    
Minimum Humidity 32    
Precipitation  
Precipitation 0.00 in 0.11 in 2.09 in (1897)
Month to date precipitation 0.95  
Year to date precipitation 11.79  
Snow  
Snow 0.00 in 0.00 in 0.00 in (2002)
Month to date snowfall 0.1  
Since 1 July snowfall 6.1  
Snow Depth -    
Sea Level Pressure  
Sea Level Pressure 30.13 in    
Wind  
Wind Speed 5 mph (SSW)    
Max Wind Speed 15 mph    
Max Gust Speed 18 mph    
Visibility 10 miles    
Events      
T = Trace of Precipitation, MM = Missing Value Source: NWS Daily Summary

Daily Weather History Graph

Daily Weather History Graph

Search for Another Location

Airport or City:

Trip Planner

Search our weather history database for the weather conditions in past years. The results will help you decide how hot, cold, wet, or windy it might be!

Date:

Astronomy

Apr. 09, 2013 Rise Set
Actual Time 6:51 AM EDT 7:44 PM EDT
Civil Twilight 6:25 AM EDT 8:10 PM EDT
Nautical Twilight 5:54 AM EDT 8:41 PM EDT
Astronomical Twilight 5:23 AM EDT 9:13 PM EDT
Moon 6:12 AM EDT (4/9) 7:18 PM EDT (4/9)
Length of Visible Light 13h 45m
Length of Day
12h 53m
Waning Crescent, 1% of the Moon is Illuminated
Apr 9
Waning Crescent
Apr 10
New
Apr 18
First Quarter
Apr 25
Full
May 2
Last Quarter

Hourly Weather History & Observations

Time (EDT) Temp. Heat Index Dew Point Humidity Pressure Visibility Wind Dir Wind Speed Gust Speed Precip Events Conditions
12:15 AM 64.9 °F - 54.7 °F 69% 30.11 in 10.0 mi South 9.2 mph - N/A   Clear
12:35 AM 65.5 °F - 55.4 °F 70% 30.11 in 10.0 mi South 9.2 mph 16.1 mph N/A   Clear
12:55 AM 64.9 °F - 55.6 °F 72% 30.12 in 10.0 mi South 9.2 mph - N/A   Clear
1:15 AM 64.9 °F - 55.6 °F 72% 30.12 in 10.0 mi SSW 6.9 mph - N/A   Clear
1:35 AM 64.0 °F - 55.6 °F 74% 30.12 in 10.0 mi SSW 3.5 mph - N/A   Clear
1:55 AM 63.1 °F - 55.6 °F 76% 30.12 in 10.0 mi South 3.5 mph - N/A   Clear
2:15 AM 62.6 °F - 55.6 °F 78% 30.12 in 10.0 mi South 4.6 mph - N/A   Clear
2:35 AM 62.6 °F - 55.9 °F 79% 30.12 in 10.0 mi SSW 4.6 mph - N/A   Clear
2:55 AM 61.2 °F - 55.4 °F 81% 30.12 in 10.0 mi Calm Calm - N/A   Clear
3:15 AM 60.3 °F - 55.6 °F 85% 30.12 in 10.0 mi Calm Calm - N/A   Clear
3:35 AM 59.9 °F - 55.8 °F 86% 30.12 in 10.0 mi Calm Calm - N/A   Clear
3:55 AM 59.0 °F - 55.8 °F 89% 30.13 in 10.0 mi Calm Calm - N/A   Clear
4:15 AM 58.3 °F - 55.4 °F 90% 30.13 in 10.0 mi Calm Calm - N/A   Clear
4:35 AM 58.5 °F - 55.9 °F 91% 30.13 in 10.0 mi Calm Calm - N/A   Clear
4:55 AM 57.2 °F - 55.0 °F 92% 30.13 in 10.0 mi Calm Calm - N/A   Clear
5:15 AM 56.3 °F - 54.5 °F 94% 30.14 in 10.0 mi Calm Calm - N/A   Clear
5:35 AM 54.9 °F - 53.2 °F 94% 30.14 in 10.0 mi Calm Calm - N/A   Clear
5:55 AM 53.6 °F - 52.0 °F 94% 30.15 in 10.0 mi Calm Calm - N/A   Clear
6:15 AM 54.1 °F - 52.7 °F 95% 30.15 in 1.5 mi Calm Calm - N/A   Mist
6:35 AM 52.9 °F - 51.4 °F 95% 30.16 in 10.0 mi Calm Calm - N/A   Clear
6:55 AM 52.7 °F - 51.3 °F 95% 30.17 in 10.0 mi Calm Calm - N/A   Clear
7:15 AM 53.1 °F - 52.0 °F 96% 30.17 in 4.0 mi Calm Calm - N/A   Clear
7:35 AM 54.0 °F - 52.7 °F 95% 30.18 in 7.0 mi SSW 3.5 mph - N/A   Clear
7:55 AM 57.0 °F - 55.9 °F 96% 30.18 in 5.0 mi Calm Calm - N/A   Clear
8:15 AM 60.3 °F - 59.2 °F 96% 30.18 in 10.0 mi Calm Calm - N/A   Clear
8:35 AM 62.8 °F - 59.4 °F 89% 30.18 in 10.0 mi SW 3.5 mph - N/A   Clear
8:55 AM 65.3 °F - 59.2 °F 81% 30.19 in 10.0 mi SW 5.8 mph - N/A   Clear
9:15 AM 66.9 °F - 58.1 °F 73% 30.19 in 10.0 mi SW 5.8 mph - N/A   Clear
9:35 AM 68.4 °F - 57.0 °F 67% 30.19 in 10.0 mi WSW 8.1 mph - N/A   Clear
9:55 AM 69.6 °F - 56.5 °F 63% 30.19 in 10.0 mi WSW 9.2 mph - N/A   Clear
10:15 AM 70.5 °F - 56.7 °F 61% 30.19 in 10.0 mi WSW 8.1 mph - N/A   Clear
10:35 AM 72.0 °F - 56.8 °F 59% 30.19 in 10.0 mi SW 6.9 mph - N/A   Clear
10:55 AM 73.6 °F - 56.5 °F 55% 30.19 in 10.0 mi WSW 6.9 mph - N/A   Clear
11:15 AM 75.0 °F - 56.3 °F 52% 30.19 in 10.0 mi SSW 8.1 mph - N/A   Clear
11:35 AM 76.5 °F - 55.2 °F 48% 30.19 in 10.0 mi SW 9.2 mph - N/A   Clear
11:55 AM 77.7 °F - 54.5 °F 45% 30.18 in 10.0 mi West 8.1 mph - N/A   Clear
12:15 PM 79.0 °F - 54.3 °F 42% 30.17 in 10.0 mi SW 8.1 mph - N/A   Clear
12:35 PM 79.7 °F - 53.8 °F 41% 30.16 in 10.0 mi SW 6.9 mph - N/A   Clear
12:55 PM 80.2 °F 80.1 °F 53.6 °F 40% 30.15 in 10.0 mi SSW 6.9 mph - N/A   Clear
1:15 PM 81.7 °F - 52.2 °F 36% 30.14 in 10.0 mi SSW 4.6 mph - N/A   Scattered Clouds
1:35 PM 82.0 °F - 51.8 °F 35% 30.14 in 10.0 mi SW 5.8 mph - N/A   Scattered Clouds
1:55 PM 81.9 °F - 51.8 °F 35% 30.13 in 10.0 mi WSW 4.6 mph - N/A   Scattered Clouds
2:15 PM 82.2 °F - 52.0 °F 35% 30.12 in 10.0 mi West 6.9 mph - N/A   Mostly Cloudy
2:35 PM 84.4 °F - 52.2 °F 33% 30.12 in 10.0 mi Calm Calm - N/A   Scattered Clouds
2:55 PM 83.3 °F - 52.5 °F 34% 30.11 in 10.0 mi SSW 13.8 mph 18.4 mph N/A   Mostly Cloudy
3:15 PM 85.1 °F - 52.9 °F 33% 30.10 in 10.0 mi South 8.1 mph - N/A   Scattered Clouds
3:35 PM 85.1 °F - 52.5 °F 32% 30.10 in 10.0 mi SSW 8.1 mph 16.1 mph N/A   Scattered Clouds
3:55 PM 85.1 °F - 52.5 °F 32% 30.09 in 10.0 mi SSW 12.7 mph 17.3 mph N/A   Scattered Clouds
4:15 PM 85.1 °F - 52.7 °F 33% 30.08 in 10.0 mi SW 8.1 mph - N/A   Scattered Clouds
4:35 PM 84.6 °F - 52.3 °F 33% 30.07 in 10.0 mi South 11.5 mph 17.3 mph N/A   Scattered Clouds
4:55 PM 84.4 °F 82.8 °F 53.1 °F 34% 30.07 in 10.0 mi South 9.2 mph - N/A   Clear
5:15 PM 84.0 °F - 52.5 °F 34% 30.07 in 10.0 mi SW 9.2 mph - N/A   Scattered Clouds
5:35 PM 84.0 °F 82.5 °F 53.1 °F 34% 30.07 in 10.0 mi SSW 15.0 mph - N/A   Scattered Clouds
5:55 PM 83.5 °F - 52.9 °F 35% 30.08 in 10.0 mi SW 10.4 mph 16.1 mph N/A   Mostly Cloudy
6:15 PM 82.2 °F - 52.5 °F 36% 30.08 in 10.0 mi SW 6.9 mph - N/A   Scattered Clouds
6:35 PM 82.2 °F - 52.5 °F 36% 30.08 in 10.0 mi SW 8.1 mph - N/A   Clear
6:55 PM 81.7 °F - 52.5 °F 36% 30.08 in 10.0 mi SW 8.1 mph - N/A   Clear
7:15 PM 80.1 °F 80.0 °F 53.4 °F 40% 30.08 in 10.0 mi SW 5.8 mph - N/A   Clear
7:35 PM 78.3 °F - 54.0 °F 43% 30.08 in 10.0 mi SSW 5.8 mph - N/A   Clear
7:55 PM 75.9 °F - 54.3 °F 47% 30.08 in 10.0 mi SSW 4.6 mph - N/A   Clear
8:15 PM 73.6 °F - 54.7 °F 51% 30.08 in 10.0 mi South 3.5 mph - N/A   Clear
8:35 PM 73.6 °F - 55.0 °F 52% 30.09 in 10.0 mi Calm Calm - N/A   Clear
8:55 PM 71.6 °F - 55.9 °F 58% 30.09 in 10.0 mi South 4.6 mph - N/A   Clear
9:15 PM 70.7 °F - 55.8 °F 59% 30.10 in 10.0 mi Calm Calm - N/A   Clear
9:35 PM 69.1 °F - 56.3 °F 64% 30.11 in 10.0 mi Calm Calm - N/A   Clear
9:55 PM 67.8 °F - 56.5 °F 67% 30.11 in 10.0 mi Calm Calm - N/A   Clear
10:15 PM 68.2 °F - 56.1 °F 65% 30.11 in 10.0 mi South 4.6 mph - N/A   Clear
10:35 PM 69.3 °F - 55.6 °F 62% 30.10 in 10.0 mi South 4.6 mph - N/A   Clear
10:55 PM 69.3 °F - 55.6 °F 62% 30.10 in 10.0 mi South 4.6 mph - N/A   Clear
11:15 PM 69.8 °F - 55.6 °F 61% 30.09 in 10.0 mi SSW 5.8 mph - N/A   Clear
11:35 PM 69.8 °F - 55.6 °F 61% 30.09 in 10.0 mi SSW 5.8 mph - N/A   Clear
11:55 PM 69.3 °F - 55.4 °F 61% 30.09 in 10.0 mi SSW 4.6 mph - N/A   Clear